| time (UTC) | temp F | wind direction | speed MPH | gust MPH | rain 1hr in | rain 24hr in | rain mn in | humidity % | barometer mb |
| 20260507020020 | 51 | 144 | 4.0 | 14.0 | 0.00 | 0.38 | 0.38 | 83 | 1012.1 |
| 20260507014539 | 51 | 138 | 6.0 | 13.0 | 0.00 | 0.38 | 0.38 | 83 | 1012.0 |
| 20260507013027 | 52 | 148 | 6.0 | 13.0 | 0.00 | 0.38 | 0.38 | 85 | 1012.2 |
| 20260507011528 | 52 | 164 | 6.0 | 15.0 | 0.00 | 0.38 | 0.38 | 85 | 1011.9 |
| 20260507010028 | 53 | 145 | 8.0 | 10.0 | 0.00 | 0.38 | 0.38 | 84 | 1012.0 |
| 20260507004536 | 53 | 167 | 4.0 | 11.0 | 0.00 | 0.38 | 0.38 | 84 | 1011.5 |
| 20260507003033 | 53 | 195 | 5.0 | 16.0 | 0.00 | 0.38 | 0.38 | 84 | 1011.0 |
| 20260507001527 | 53 | 160 | 8.0 | 19.0 | 0.00 | 0.38 | 0.38 | 85 | 1010.7 |
| 20260507000017 | 54 | 214 | 10.0 | 16.0 | 0.00 | 0.38 | 0.38 | 85 | 1010.3 |
| 20260506234532 | 54 | 214 | 5.0 | 14.0 | 0.00 | 0.38 | 0.38 | 85 | 1010.0 |
| 20260506233033 | 55 | 220 | 6.0 | 12.0 | 0.00 | 0.38 | 0.38 | 86 | 1009.9 |
| 20260506231545 | 57 | 192 | 7.0 | 14.0 | 0.00 | 0.38 | 0.38 | 85 | 1009.8 |
| 20260506230027 | 60 | 117 | 7.0 | 12.0 | 0.00 | 0.38 | 0.38 | 85 | 1009.4 |
| 20260506224516 | 61 | 108 | 6.0 | 10.0 | 0.00 | 0.38 | 0.38 | 86 | 1009.3 |
| 20260506223040 | 61 | 67 | 5.0 | 7.0 | 0.00 | 0.38 | 0.38 | 87 | 1009.2 |
| 20260506221528 | 62 | 72 | 4.0 | 7.0 | 0.00 | 0.38 | 0.38 | 88 | 1008.9 |
| 20260506220006 | 62 | 94 | 3.0 | 9.0 | 0.00 | 0.38 | 0.38 | 89 | 1008.6 |
| 20260506214511 | 62 | 52 | 3.0 | 5.0 | 0.00 | 0.38 | 0.38 | 90 | 1008.6 |
| 20260506213008 | 61 | 94 | 2.0 | 4.0 | 0.00 | 0.38 | 0.38 | 90 | 1008.3 |
| 20260506211514 | 61 | 108 | 5.0 | 11.0 | 0.00 | 0.38 | 0.38 | 89 | 1008.2 |
| 20260506210007 | 62 | 93 | 5.0 | 9.0 | 0.00 | 0.38 | 0.38 | 88 | 1008.0 |
| 20260506204508 | 62 | 58 | 4.0 | 9.0 | 0.00 | 0.38 | 0.38 | 88 | 1008.0 |
| 20260506203021 | 62 | 61 | 4.0 | 9.0 | 0.00 | 0.38 | 0.38 | 88 | 1007.9 |
| 20260506201529 | 62 | 63 | 4.0 | 6.0 | 0.00 | 0.38 | 0.38 | 89 | 1007.9 |
| 20260506200014 | 61 | 60 | 4.0 | 6.0 | 0.00 | 0.38 | 0.38 | 90 | 1008.0 |
| 20260506194506 | 61 | 52 | 6.0 | 7.0 | 0.00 | 0.38 | 0.38 | 90 | 1008.1 |
| 20260506193011 | 60 | 79 | 4.0 | 8.0 | 0.00 | 0.38 | 0.38 | 90 | 1008.1 |
| 20260506191515 | 60 | 72 | 3.0 | 7.0 | 0.00 | 0.38 | 0.38 | 90 | 1008.1 |
| 20260506190017 | 60 | 75 | 3.0 | 8.0 | 0.00 | 0.38 | 0.38 | 91 | 1008.3 |
| 20260506184517 | 60 | 48 | 4.0 | 9.0 | 0.01 | 0.38 | 0.38 | 91 | 1008.3 |
| 20260506183028 | 59 | 94 | 3.0 | 6.0 | 0.01 | 0.38 | 0.38 | 92 | 1008.2 |
| 20260506181514 | 59 | 81 | 3.0 | 6.0 | 0.02 | 0.38 | 0.38 | 92 | 1008.3 |
| 20260506180018 | 58 | 85 | 0.0 | 4.0 | 0.03 | 0.38 | 0.38 | 92 | 1008.6 |
| 20260506174519 | 58 | 98 | 1.0 | 4.0 | 0.04 | 0.37 | 0.37 | 92 | 1008.6 |
| 20260506173018 | 58 | 75 | 2.0 | 6.0 | 0.04 | 0.37 | 0.37 | 92 | 1008.6 |
| 20260506171511 | 58 | 89 | 3.0 | 9.0 | 0.03 | 0.36 | 0.36 | 91 | 1008.6 |
| 20260506170019 | 58 | 53 | 7.0 | 10.0 | 0.03 | 0.35 | 0.35 | 90 | 1008.7 |
| 20260506164522 | 59 | 58 | 7.0 | 14.0 | 0.01 | 0.33 | 0.33 | 89 | 1008.7 |
| 20260506163019 | 59 | 58 | 8.0 | 14.0 | 0.01 | 0.33 | 0.33 | 89 | 1008.7 |
| 20260506161522 | 59 | 52 | 6.0 | 20.0 | 0.02 | 0.33 | 0.33 | 89 | 1008.7 |
| 20260506160021 | 59 | 57 | 7.0 | 10.0 | 0.03 | 0.32 | 0.32 | 89 | 1008.7 |
| 20260506154522 | 59 | 51 | 8.0 | 11.0 | 0.06 | 0.32 | 0.32 | 89 | 1008.6 |
| 20260506153024 | 58 | 39 | 4.0 | 12.0 | 0.09 | 0.32 | 0.32 | 89 | 1008.4 |
| 20260506151522 | 58 | 349 | 6.0 | 15.0 | 0.09 | 0.31 | 0.31 | 89 | 1008.6 |
| 20260506150024 | 58 | 56 | 7.0 | 15.0 | 0.09 | 0.29 | 0.29 | 89 | 1008.8 |
| 20260506144521 | 59 | 37 | 8.0 | 15.0 | 0.08 | 0.26 | 0.26 | 88 | 1009.2 |
| 20260506143028 | 59 | 12 | 10.0 | 13.0 | 0.07 | 0.23 | 0.23 | 88 | 1009.0 |
| 20260506141520 | 59 | 30 | 10.0 | 18.0 | 0.06 | 0.22 | 0.22 | 87 | 1008.8 |
| 20260506140022 | 59 | 41 | 8.0 | 13.0 | 0.05 | 0.20 | 0.20 | 87 | 1008.9 |
| 20260506134522 | 58 | 119 | 1.0 | 3.0 | 0.06 | 0.18 | 0.18 | 87 | 1009.1 |
| 20260506133024 | 58 | 109 | 1.0 | 5.0 | 0.08 | 0.16 | 0.16 | 86 | 1009.3 |
| 20260506131516 | 59 | 120 | 3.0 | 8.0 | 0.11 | 0.16 | 0.16 | 85 | 1009.3 |
| 20260506130010 | 59 | 84 | 5.0 | 10.0 | 0.12 | 0.15 | 0.15 | 85 | 1009.3 |
| 20260506124506 | 59 | 61 | 6.0 | 9.0 | 0.10 | 0.12 | 0.12 | 84 | 1009.6 |
| 20260506123029 | 59 | 79 | 4.0 | 7.0 | 0.07 | 0.08 | 0.08 | 83 | 1009.8 |
| 20260506121525 | 60 | 70 | 3.0 | 6.0 | 0.05 | 0.05 | 0.05 | 81 | 1009.8 |
| 20260506120030 | 60 | 94 | 3.0 | 16.0 | 0.03 | 0.03 | 0.03 | 78 | 1009.7 |
| 20260506114524 | 61 | 58 | 8.0 | 14.0 | 0.02 | 0.02 | 0.02 | 77 | 1009.2 |
| 20260506113030 | 61 | 67 | 4.0 | 14.0 | 0.01 | 0.01 | 0.01 | 75 | 1009.1 |
| 20260506111527 | 62 | 39 | 6.0 | 15.0 | 0.00 | 0.00 | 0.00 | 72 | 1009.0 |
| 20260506110016 | 63 | 36 | 9.0 | 20.0 | 0.00 | 0.00 | 0.00 | 69 | 1009.0 |
| 20260506104526 | 64 | 5 | 8.0 | 19.0 | 0.00 | 0.00 | 0.00 | 66 | 1008.5 |
| 20260506103026 | 64 | 329 | 11.0 | 15.0 | 0.00 | 0.00 | 0.00 | 64 | 1008.2 |
| 20260506101526 | 64 | 39 | 9.0 | 16.0 | 0.00 | 0.00 | 0.00 | 64 | 1008.2 |
| 20260506100011 | 64 | 351 | 7.0 | 13.0 | 0.00 | 0.00 | 0.00 | 63 | 1008.2 |
| 20260506094520 | 64 | 13 | 6.0 | 13.0 | 0.00 | 0.00 | 0.00 | 63 | 1008.3 |
| 20260506093024 | 65 | 28 | 9.0 | 15.0 | 0.00 | 0.00 | 0.00 | 61 | 1008.3 |
| 20260506091513 | 65 | 348 | 12.0 | 19.0 | 0.00 | 0.00 | 0.00 | 60 | 1008.5 |
| 20260506090041 | 66 | 39 | 11.0 | 18.0 | 0.00 | 0.00 | 0.00 | 59 | 1008.4 |
| 20260506084517 | 66 | 360 | 12.0 | 18.0 | 0.00 | 0.00 | 0.00 | 58 | 1008.4 |
| 20260506083018 | 65 | 358 | 9.0 | 15.0 | 0.00 | 0.00 | 0.00 | 57 | 1008.5 |
| 20260506081521 | 65 | 37 | 8.0 | 16.0 | 0.00 | 0.00 | 0.00 | 57 | 1008.5 |
| 20260506073028 | 66 | 50 | 7.0 | 10.0 | 0.00 | 0.00 | 0.00 | 55 | 1008.6 |
| 20260506071522 | 66 | 81 | 4.0 | 7.0 | 0.00 | 0.00 | 0.00 | 53 | 1008.9 |
| 20260506061540 | 67 | 25 | 9.0 | 14.0 | 0.00 | 0.00 | 0.00 | 48 | 1009.6 |
| 20260506044529 | 67 | 32 | 5.0 | 13.0 | 0.00 | 0.00 | 0.00 | 46 | 1010.3 |
| 20260506043036 | 67 | 355 | 7.0 | 11.0 | 0.00 | 0.00 | 0.00 | 45 | 1010.1 |
| 20260506041530 | 65 | 20 | 4.0 | 6.0 | 0.00 | 0.00 | 0.00 | 47 | 1010.1 |
| 20260506040019 | 66 | 54 | 2.0 | 5.0 | 0.00 | 0.00 | 0.00 | 47 | 1010.2 |
| 20260506034524 | 66 | 44 | 4.0 | 12.0 | 0.00 | 0.00 | 0.00 | 46 | 1010.2 |
| 20260506033005 | 66 | 50 | 4.0 | 8.0 | 0.00 | 0.00 | 0.00 | 46 | 1010.2 |
| 20260506031508 | 66 | 56 | 2.0 | 6.0 | 0.00 | 0.00 | 0.00 | 47 | 1010.2 |
| 20260506030015 | 67 | 34 | 5.0 | 10.0 | 0.00 | 0.00 | 0.00 | 46 | 1010.1 |
| 20260506024537 | 68 | 60 | 4.0 | 11.0 | 0.00 | 0.00 | 0.00 | 45 | 1010.0 |
| 20260506023004 | 68 | 44 | 1.0 | 9.0 | 0.00 | 0.00 | 0.00 | 44 | 1010.1 |
| 20260506021504 | 69 | 45 | 3.0 | 11.0 | 0.00 | 0.00 | 0.00 | 44 | 1010.1 |